Volver al catálogo

FENGYUN 1C DEB

ActivoSSO
NORAD 35155·DEBRIS·🇨🇳 China

Lanzado May 10, 1999 desde Taiyuan Satellite Launch Center

Loading…

Próximos Pases (próximas 24 horas)

TLE

ActualizadoSource: Space-Track

Época: Sep 14, 2026, 18:38 UTC

1 35155U 99025DMK 26257.77678356  .00000792  00000-0  39164-3 0  9999
2 35155  98.4981 263.3813 0025014 355.5468   4.5482 14.19903190766306

Sigue FENGYUN 1C DEB en tiempo real con AllMySat

Download on the App Store